Date String (YYYY-MM-DD hh:mm:ss) UTC,Instrument flags,Ambient pressure (hPa),Sample flow (lpm),Bypass flow (lpm),Sample temperature (°C),Ambient temperature (°C),ASC tube jacket temperature (°C),LED temperature (°C),Box temperature (°C),Sample RH (%),Span deviation,Mass concentration (μg/m³),Mass concentration (μg/m³),Mass concentration (μg/m³)
DateTimeUTC,F1_M11,P_M11,Q1_M11,Q2_M11,T1_M11,T2_M11,T3_M11,T4_M11,T5_M11,U1_M11,ZSPAN_M11,X0_M11,X2_M11,X1_M11
2022-02-07 19:00:00,,0831.6,4.99,0.00,25.5,24.8,00.0,34.4,27.4,07.6,0000.0,0007.92,0002.85,0002.35
2022-02-07 19:01:00,,0831.5,5.00,0.00,25.6,24.8,00.0,34.4,27.4,07.6,0000.0,0008.17,0003.04,0002.48
2022-02-07 19:02:00,,0831.5,5.01,0.00,25.6,24.8,00.0,34.4,27.4,07.6,0000.0,0008.26,0003.17,0002.63
2022-02-07 19:03:00,,0831.6,5.00,0.00,25.6,24.8,00.0,34.4,27.4,07.9,0000.0,0008.36,0003.27,0002.80
2022-02-07 19:04:00,,0831.6,4.99,0.00,25.6,24.8,00.0,34.4,27.4,07.8,0000.0,0008.53,0003.37,0002.96
2022-02-07 19:05:00,,0831.5,5.01,0.00,25.6,24.8,00.0,34.4,27.4,07.9,0000.0,0008.74,0003.48,0003.11
2022-02-07 19:06:00,,0831.4,5.00,0.00,25.6,24.8,00.0,34.4,27.4,07.9,0000.0,0008.99,0003.61,0003.20
2022-02-07 19:07:00,,0831.4,5.00,0.00,25.6,24.8,00.0,34.5,27.5,08.0,0000.0,0009.11,0003.71,0003.28
2022-02-07 19:08:00,,0831.4,4.99,0.00,25.6,24.8,00.0,34.5,27.5,08.1,0000.0,0008.65,0003.78,0003.35
2022-02-07 19:09:00,,0831.4,4.99,0.00,25.6,24.8,00.0,34.5,27.5,08.1,0000.0,0007.94,0003.85,0003.42
2022-02-07 19:10:00,,0831.4,5.02,0.00,25.6,24.9,00.0,34.5,27.5,08.1,0000.0,0007.94,0003.89,0003.47
2022-02-07 19:11:00,,0831.4,5.01,0.00,25.6,24.9,00.0,34.5,27.5,07.9,0000.0,0008.12,0003.96,0003.52
2022-02-07 19:12:00,,0831.4,4.99,0.00,25.6,24.9,00.0,34.5,27.5,08.0,0000.0,0007.88,0004.00,0003.57
2022-02-07 19:13:00,,0831.4,4.99,0.00,25.6,24.9,00.0,34.5,27.5,07.9,0000.0,0008.08,0004.07,0003.62
2022-02-07 19:14:00,,0831.3,4.99,0.00,25.6,24.9,00.0,34.5,27.5,08.0,0000.0,0009.03,0004.12,0003.66
2022-02-07 19:15:00,,0831.2,5.00,0.00,25.7,24.9,00.0,34.5,27.5,07.9,0000.0,0009.37,0004.14,0003.68
2022-02-07 19:16:00,,0831.1,5.00,0.00,25.7,24.9,00.0,34.6,27.5,08.0,0000.0,0009.69,0004.18,0003.71
2022-02-07 19:17:00,,0831.2,5.00,0.00,25.7,24.9,00.0,34.6,27.5,08.2,0000.0,0009.83,0004.15,0003.73
2022-02-07 19:18:00,,0831.2,5.01,0.00,25.7,24.9,00.0,34.6,27.5,08.1,0000.0,0009.90,0004.15,0003.75
2022-02-07 19:19:00,,0831.2,5.01,0.00,25.7,24.9,00.0,34.6,27.6,08.8,0000.0,0010.04,0004.17,0003.77
2022-02-07 19:20:00,,0831.2,5.00,0.00,25.7,24.9,00.0,34.6,27.5,09.0,0000.0,0010.78,0004.19,0003.79
2022-02-07 19:21:00,,0831.2,5.00,0.00,25.7,25.0,00.0,34.6,27.6,08.5,0000.0,0010.95,0004.25,0003.82
2022-02-07 19:22:00,,0831.1,4.99,0.00,25.7,25.0,00.0,34.6,27.6,08.4,0000.0,0010.95,0004.31,0003.87
2022-02-07 19:23:00,,0831.1,5.01,0.00,25.7,25.0,00.0,34.6,27.6,08.6,0000.0,0010.67,0004.35,0003.91
2022-02-07 19:24:00,,0831.1,5.00,0.00,25.8,25.0,00.0,34.6,27.6,08.3,0000.0,0010.63,0004.38,0003.95
2022-02-07 19:25:00,,0831.0,4.99,0.00,25.8,25.1,00.0,34.6,27.6,08.4,0000.0,0010.21,0004.44,0004.00
2022-02-07 19:26:00,,0831.0,5.00,0.00,25.8,25.1,00.0,34.6,27.7,08.3,0000.0,0010.90,0004.52,0004.07
2022-02-07 19:27:00,,0830.9,5.01,0.00,25.8,25.1,00.0,34.7,27.7,08.9,0000.0,0010.60,0004.55,0004.13
2022-02-07 19:28:00,,0831.0,5.01,0.00,25.8,25.1,00.0,34.7,27.7,08.8,0000.0,0010.57,0004.62,0004.19
2022-02-07 19:29:00,,0831.0,4.99,0.00,25.9,25.2,00.0,34.7,27.7,08.9,0000.0,0010.98,0004.68,0004.28
2022-02-07 19:30:00,,0831.0,4.99,0.00,25.9,25.2,00.0,34.7,27.8,08.5,0000.0,0010.87,0004.74,0004.34
2022-02-07 19:31:00,,0830.9,5.01,0.00,25.9,25.2,00.0,34.7,27.8,08.3,0000.0,0010.71,0004.81,0004.40
2022-02-07 19:32:00,,0831.0,5.01,0.00,25.9,25.2,00.0,34.7,27.8,08.3,0000.0,0010.94,0004.84,0004.44
2022-02-07 19:33:00,,0830.9,4.99,0.00,26.0,25.2,00.0,34.8,27.8,08.4,0000.0,0011.04,0004.91,0004.47
2022-02-07 19:34:00,,0830.9,4.99,0.00,26.0,25.2,00.0,34.8,27.8,08.4,0000.0,0011.03,0004.95,0004.51
2022-02-07 19:35:00,,0830.9,5.01,0.00,26.0,25.3,00.0,34.8,27.9,08.7,0000.0,0010.98,0004.99,0004.56
2022-02-07 19:36:00,,0830.9,5.00,0.00,26.0,25.3,00.0,34.8,27.9,08.4,0000.0,0011.10,0005.02,0004.59
2022-02-07 19:37:00,,0830.9,5.00,0.00,26.0,25.3,00.0,34.8,27.9,08.2,0000.0,0010.24,0005.05,0004.62
2022-02-07 19:38:00,,0830.9,4.99,0.00,26.1,25.3,00.0,34.8,27.9,08.3,0000.0,0010.41,0005.09,0004.63
2022-02-07 19:39:00,,0830.9,5.00,0.00,26.1,25.4,00.0,34.9,27.9,08.3,0000.0,0010.43,0005.11,0004.64
2022-02-07 19:40:00,,0830.9,5.01,0.00,26.1,25.4,00.0,34.9,28.0,08.5,0000.0,0009.78,0005.10,0004.64
2022-02-07 19:41:00,,0831.0,4.99,0.00,26.1,25.4,00.0,34.9,28.0,08.3,0000.0,0009.89,0005.12,0004.65
2022-02-07 19:42:00,,0831.0,4.99,0.00,26.2,25.5,00.0,34.9,28.0,08.3,0000.0,0010.21,0005.12,0004.66
2022-02-07 19:43:00,,0830.9,5.00,0.00,26.2,25.5,00.0,34.9,28.1,08.3,0000.0,0009.99,0005.14,0004.67
2022-02-07 19:44:00,,0831.0,5.00,0.00,26.2,25.5,00.0,35.0,28.1,08.5,0000.0,0011.33,0005.14,0004.69
2022-02-07 19:45:00,,0831.0,5.00,0.00,26.2,25.6,00.0,35.0,28.1,08.6,0000.0,0011.49,0005.13,0004.68
2022-02-07 19:46:00,,0831.0,5.00,0.00,26.2,25.6,00.0,35.0,28.1,08.5,0000.0,0011.78,0005.14,0004.67
2022-02-07 19:47:00,,0831.0,5.00,0.00,26.3,25.6,00.0,35.0,28.2,08.4,0000.0,0011.60,0005.12,0004.63
2022-02-07 19:48:00,,0830.9,5.01,0.00,26.3,25.6,00.0,35.1,28.2,08.3,0000.0,0011.38,0005.09,0004.61
2022-02-07 19:49:00,,0830.9,5.00,0.00,26.3,25.6,00.0,35.1,28.2,08.6,0000.0,0011.49,0005.10,0004.63
2022-02-07 19:50:00,,0830.9,5.00,0.00,26.3,25.6,00.0,35.1,28.2,09.0,0000.0,0011.99,0005.14,0004.67
2022-02-07 19:51:00,,0831.0,5.00,0.00,26.3,25.6,00.0,35.1,28.2,09.0,0000.0,0012.19,0005.23,0004.74
2022-02-07 19:52:00,,0831.0,5.01,0.00,26.3,25.6,00.0,35.1,28.2,09.0,0000.0,0012.56,0005.31,0004.80
2022-02-07 19:53:00,,0830.9,4.99,0.00,26.4,25.7,00.0,35.1,28.2,09.1,0000.0,0012.29,0005.37,0004.86
2022-02-07 19:54:00,,0830.9,5.00,0.00,26.4,25.7,00.0,35.2,28.2,08.7,0000.0,0012.09,0005.46,0004.93
2022-02-07 19:55:00,,0830.9,4.99,0.00,26.4,25.7,00.0,35.2,28.3,08.9,0000.0,0011.45,0005.51,0004.99
2022-02-07 19:56:00,,0830.9,5.02,0.00,26.4,25.7,00.0,35.2,28.3,09.2,0000.0,0010.86,0005.58,0005.08
2022-02-07 19:57:00,,0831.0,4.99,0.00,26.4,25.7,00.0,35.2,28.3,09.0,0000.0,0011.04,0005.61,0005.15
2022-02-07 19:58:00,,0831.0,5.00,0.00,26.4,25.7,00.0,35.3,28.3,09.1,0000.0,0011.24,0005.67,0005.24
2022-02-07 19:59:00,,0831.0,4.99,0.00,26.5,25.8,00.0,35.3,28.3,09.2,0000.0,0011.20,0005.74,0005.34
